This is the latest recevied weather packets stored in our database for station/object W2GUX. If no packets are shown the sender has not sent any weather packets the latest 1 day(s).
| Time | Temp. | Humidity | Pressure | Rain* | Wind** | Luminosity | Snow |
|---|---|---|---|---|---|---|---|
| 1778024404 | 26.11° C | 25% | 1004.6 hPa | 0 mm | 1.79 m/s, 193° | - | - |
| 1778024103 | 26.11° C | 25% | 1004.6 hPa | 0 mm | 1.79 m/s, 183° | - | - |
| 1778023803 | 26.67° C | 25% | 1004.5 hPa | 0 mm | 2.24 m/s, 179° | - | - |
| 1778023503 | 26.67° C | 25% | 1004.5 hPa | 0 mm | 1.79 m/s, 185° | - | - |
| 1778023203 | 26.67° C | 24% | 1004.5 hPa | 0 mm | 2.68 m/s, 194° | - | - |
| 1778022904 | 26.67° C | 24% | 1004.4 hPa | 0 mm | 2.68 m/s, 191° | - | - |
| 1778022603 | 26.67° C | 24% | 1004.4 hPa | 0 mm | 2.24 m/s, 206° | - | - |
| 1778022304 | 26.67° C | 24% | 1004.2 hPa | 0 mm | 2.68 m/s, 204° | - | - |
| 1778022003 | 26.67° C | 23% | 1004.3 hPa | 0 mm | 3.58 m/s, 183° | - | - |
| 1778021704 | 27.22° C | 23% | 1004.2 hPa | 0 mm | 3.13 m/s, 176° | - | - |
| 1778021404 | 27.22° C | 23% | 1004.1 hPa | 0 mm | 2.24 m/s, 181° | - | - |
| 1778021103 | 27.22° C | 22% | 1004 hPa | 0 mm | 2.24 m/s, 192° | - | - |
| 1778020803 | 27.78° C | 22% | 1004 hPa | 0 mm | 2.68 m/s, 201° | - | - |
| 1778020503 | 27.78° C | 22% | 1003.9 hPa | 0 mm | 2.68 m/s, 192° | - | - |
| 1778020203 | 27.78° C | 23% | 1004 hPa | 0 mm | 2.68 m/s, 192° | - | - |
| 1778019904 | 27.78° C | 22% | 1004 hPa | 0 mm | 2.24 m/s, 209° | - | - |
| 1778019604 | 27.78° C | 23% | 1004 hPa | 0 mm | 1.79 m/s, 207° | - | - |
| 1778019303 | 27.78° C | 22% | 1003.8 hPa | 0 mm | 2.24 m/s, 188° | - | - |
| 1778019003 | 27.78° C | 22% | 1003.8 hPa | 0 mm | 2.68 m/s, 184° | - | - |
| 1778018703 | 27.78° C | 22% | 1003.9 hPa | 0 mm | 2.68 m/s, 191° | - | - |
| 1778018404 | 27.78° C | 23% | 1003.7 hPa | 0 mm | 1.79 m/s, 201° | - | - |
| 1778018104 | 27.78° C | 23% | 1003.8 hPa | 0 mm | 1.79 m/s, 210° | - | - |
| 1778017803 | 27.78° C | 23% | 1003.7 hPa | 0 mm | 2.24 m/s, 203° | - | - |
| 1778017503 | 27.78° C | 22% | 1003.7 hPa | 0 mm | 2.68 m/s, 198° | - | - |
| 1778017203 | 27.78° C | 22% | 1003.6 hPa | 0 mm | 3.13 m/s, 198° | - | - |
* Rain latest hour (hover to see other rain measurements)
** Current wind speed in m/s (hover to see current wind gust speed)